Location: Favalello
(42.2939°N, 9.2706°E)
Time: 18:39:13
(UTC+00:00)

Cosmos 1500 - Pass Details

Date: 06 December 2019
Orbit: 499 x 520 km, 82.5° (Epoch: 27 January)

Event Time Altitude Azimuth Distance (km) Brightness Sun altitude
Rises 17:20:46 0° 349° (N) 2,623 6.7 -16.1°
Reaches altitude 10° 17:22:55 10° 347° (NNW) 1,729 5.8 -16.5°
Maximum altitude 17:26:40 70° 265° (W) 540 3.4 -17.2°
Drops below altitude 10° 17:30:23 10° 181° (S) 1,704 6.0 -17.9°
Sets 17:32:29 0° 179° (S) 2,581 6.9 -18.2°
